Home > Weather > Kitchener > Past weeks

Flag for Canada Past Weather in Kitchener, Ontario, Canada — Yesterday and Last 2 Weeks

Now
63 °F

Mostly cloudy.


Feels Like: 63 °F
Forecast: 57 / 81 °F
Wind: 5 mph from Southwest

Location: Waterloo Well

Current Time: May 25, 2016 at 9:11:21 AM

Latest Report: May 25, 2016 at 8:00 AM


Visibility: 9 mi

Pressure: 30.04 "Hg

Humidity: 68%

Dew Point: 52 °F

Location of KitchenerLocation

Past Weather in Kitchener — Graph

°F

Kitchener Temperature Yesterday

Maximum temperature yesterday: 81 °F (at 5:00 PM)
Minimum temperature yesterday: 43 °F (at 5:00 AM)
Average temperature yesterday: 64 °F

High & Low Weather Summary for the Past Weeks

 TemperatureHumidityPressure
High81 °F (May 24, 5:00 PM)100% (May 13, 3:00 AM)30.30 "Hg (May 13, 3:00 AM)
Low32 °F (May 16, 1:00 AM)24% (May 24, 5:00 PM)29.48 "Hg (May 14, 10:03 AM)
Average54 °F63%30.03 "Hg
* Reported May 10 7:00 AM — May 25 7:00 AM, Kitchener, Weather by CustomWeather, © 2016

Note: Actual official high and low records may vary slightly from our data, if they occured in-between our weather recording intervals... More about our weather records

Advertising

Kitchener Weather History for the Previous 24 Hours

Scroll right to see more
 ConditionsComfort  
Time TempWeatherWind HumidityBarometerVisibility
7:00 AM
Wed, May 25
57 °FMostly cloudy.No wind82%30.04 "Hg9 mi
6:00 AM54 °FPartly cloudy.No wind82%30.02 "Hg9 mi
5:00 AM55 °FClear.3 mph72%30.01 "Hg9 mi
4:00 AM59 °FClear.5 mph59%30.01 "Hg9 mi
3:00 AM63 °FClear.3 mph49%30.00 "Hg9 mi
2:00 AM61 °FPassing clouds.3 mph55%29.99 "Hg9 mi
1:00 AM61 °FClear.2 mph52%29.99 "Hg9 mi
12:00 AM63 °FClear.2 mph49%30.00 "Hg9 mi
11:00 PM
Tue, May 24
64 °FClear.6 mph46%30.00 "Hg9 mi
10:00 PM66 °FClear.7 mph43%30.00 "Hg9 mi
9:00 PM68 °FSunny.7 mph40%29.98 "Hg9 mi
8:00 PM72 °FSunny.5 mph33%29.98 "Hg9 mi
7:00 PM75 °FSunny.8 mph27%29.96 "Hg9 mi
6:00 PM79 °FSunny.9 mph26%29.97 "Hg9 mi
5:00 PM81 °FSunny.7 mph24%29.97 "Hg9 mi
4:00 PM79 °FSunny.12 mph26%29.98 "Hg9 mi
3:00 PM79 °FSunny.12 mph26%29.99 "Hg9 mi
2:00 PM79 °FSunny.8 mph28%29.99 "Hg9 mi
1:00 PM77 °FSunny.10 mph34%30.00 "Hg9 mi
12:00 PM77 °FSunny.9 mph32%30.01 "Hg9 mi
11:00 AM75 °FSunny.9 mph31%30.01 "Hg9 mi
10:00 AM72 °FSunny.12 mph38%30.02 "Hg9 mi
9:00 AM66 °FSunny.6 mph49%30.02 "Hg9 mi
Weather by CustomWeather, © 2016

See weather overviewHow to use our weather pages